When you browse on this site, cookies collect data to enhance your experience and personalize the content and advertising you see.
Visit our Privacy Policy to learn more. By continuing to use the site, you agree to this use of cookies and data.
  • In Switzerland
  • List of Countries
  • For 7 days
  • Water Temperature
  • Weather Map
  • Weather Widgets
  • user-avatar
    Login

    Hourly Weather Bruges

    Today, 16 October, Wednesday

    Time Temperature Precipitation Wind Pressure Humidity
    00:00 +10°C° 0 mm 6 mps 755 mmHg 92%
    01:00 +10°C° 0 mm 6 mps 755 mmHg 90%
    02:00 +9°C° 0 mm 6 mps 755 mmHg 89%
    03:00 +9°C° 0 mm 6 mps 755 mmHg 88%
    04:00 +9°C° 0 mm 6 mps 754 mmHg 88%
    05:00 +9°C° 0 mm 6 mps 754 mmHg 88%
    06:00 +9°C° 0 mm 6 mps 754 mmHg 91%
    07:00 +10°C° 0.9 mm 7 mps 753 mmHg 91%
    08:00 +11°C° 0.9 mm 7 mps 753 mmHg 91%
    09:00 +11°C° 0.9 mm 8 mps 753 mmHg 91%
    10:00 +12°C° 0.2 mm 8 mps 753 mmHg 90%
    11:00 +13°C° 0.2 mm 9 mps 753 mmHg 89%
    12:00 +13°C° 0.2 mm 9 mps 753 mmHg 88%
    13:00 +13°C° 0.3 mm 9 mps 752 mmHg 88%
    14:00 +13°C° 0.3 mm 9 mps 752 mmHg 89%
    15:00 +13°C° 0.3 mm 8 mps 752 mmHg 90%
    16:00 +13°C° 0.8 mm 8 mps 752 mmHg 91%
    17:00 +13°C° 0.8 mm 8 mps 752 mmHg 91%
    18:00 +13°C° 0.8 mm 8 mps 753 mmHg 92%
    19:00 +13°C° 0.7 mm 8 mps 753 mmHg 92%
    20:00 +14°C° 0.7 mm 7 mps 753 mmHg 92%
    21:00 +14°C° 0.7 mm 7 mps 753 mmHg 92%
    22:00 +13°C° 0.2 mm 6 mps 754 mmHg 91%
    23:00 +13°C° 0.2 mm 5 mps 754 mmHg 90%

    Tomorrow, 17 October, Thursday

    Time Temperature Precipitation Wind Pressure Humidity
    00:00 +13°C° 0.2 mm 4 mps 754 mmHg 89%
    01:00 +12°C° 0 mm 4 mps 754 mmHg 89%
    02:00 +12°C° 0 mm 4 mps 755 mmHg 88%
    03:00 +12°C° 0 mm 3 mps 755 mmHg 87%
    04:00 +11°C° 0 mm 3 mps 755 mmHg 86%
    05:00 +10°C° 0 mm 3 mps 756 mmHg 86%
    06:00 +10°C° 0 mm 3 mps 756 mmHg 85%
    07:00 +11°C° 0 mm 4 mps 756 mmHg 81%
    08:00 +12°C° 0 mm 4 mps 756 mmHg 78%
    09:00 +13°C° 0 mm 4 mps 757 mmHg 75%
    10:00 +13°C° 0.1 mm 5 mps 757 mmHg 70%
    11:00 +14°C° 0.1 mm 6 mps 757 mmHg 65%
    12:00 +15°C° 0.1 mm 7 mps 756 mmHg 61%
    13:00 +15°C° 0 mm 6 mps 756 mmHg 60%
    14:00 +15°C° 0 mm 6 mps 756 mmHg 60%
    15:00 +15°C° 0 mm 5 mps 756 mmHg 60%
    16:00 +14°C° 0 mm 5 mps 756 mmHg 63%
    17:00 +13°C° 0 mm 5 mps 756 mmHg 67%
    18:00 +10°C° 0 mm 5 mps 756 mmHg 71%
    19:00 +10°C° 0 mm 5 mps 756 mmHg 74%
    20:00 +11°C° 0 mm 6 mps 756 mmHg 77%
    21:00 +11°C° 0 mm 6 mps 755 mmHg 81%
    22:00 +11°C° 0.2 mm 6 mps 755 mmHg 84%
    23:00 +11°C° 0.2 mm 6 mps 755 mmHg 87%

    Day after tomorrow, 18 October, Friday

    Time Temperature Precipitation Wind Pressure Humidity
    00:00 +13°C° 0.2 mm 6 mps 754 mmHg 90%
    01:00 +11°C° 0 mm 6 mps 754 mmHg 88%
    02:00 +11°C° 0 mm 7 mps 753 mmHg 87%
    03:00 +10°C° 0 mm 7 mps 753 mmHg 85%
    04:00 +10°C° 0 mm 7 mps 753 mmHg 85%
    05:00 +10°C° 0 mm 8 mps 753 mmHg 86%
    06:00 +10°C° 0 mm 8 mps 753 mmHg 86%
    07:00 +11°C° 0.1 mm 9 mps 753 mmHg 82%
    08:00 +11°C° 0.1 mm 10 mps 753 mmHg 78%
    09:00 +12°C° 0.1 mm 11 mps 753 mmHg 74%
    10:00 +13°C° 0.2 mm 12 mps 753 mmHg 69%
    11:00 +14°C° 0.2 mm 12 mps 753 mmHg 63%
    12:00 +14°C° 0.2 mm 12 mps 754 mmHg 58%
    13:00 +14°C° 0 mm 11 mps 754 mmHg 58%
    14:00 +15°C° 0 mm 9 mps 754 mmHg 59%
    15:00 +15°C° 0 mm 8 mps 754 mmHg 59%
    16:00 +14°C° 0 mm 7 mps 754 mmHg 64%
    17:00 +13°C° 0 mm 6 mps 754 mmHg 68%
    18:00 +11°C° 0 mm 6 mps 754 mmHg 72%
    19:00 +10°C° 0 mm 5 mps 754 mmHg 75%
    20:00 +10°C° 0 mm 5 mps 754 mmHg 78%
    21:00 +10°C° 0 mm 5 mps 754 mmHg 80%
    22:00 +10°C° 0 mm 5 mps 754 mmHg 81%
    23:00 +10°C° 0 mm 5 mps 753 mmHg 82%

    19 October, Saturday

    Time Temperature Precipitation Wind Pressure Humidity
    00:00 +10°C° 0 mm 5 mps 753 mmHg 83%
    01:00 +10°C° 0 mm 5 mps 753 mmHg 83%
    02:00 +10°C° 0 mm 6 mps 752 mmHg 83%
    03:00 +10°C° 0 mm 6 mps 752 mmHg 83%
    04:00 +10°C° 0.1 mm 5 mps 752 mmHg 84%
    05:00 +10°C° 0.1 mm 5 mps 752 mmHg 86%
    06:00 +10°C° 0.1 mm 5 mps 751 mmHg 87%
    07:00 +10°C° 0.1 mm 5 mps 751 mmHg 87%
    08:00 +12°C° 0.1 mm 5 mps 751 mmHg 87%
    09:00 +12°C° 0.1 mm 5 mps 751 mmHg 87%
    10:00 +13°C° 0.3 mm 6 mps 751 mmHg 82%
    11:00 +14°C° 0.3 mm 6 mps 751 mmHg 76%
    12:00 +14°C° 0.3 mm 6 mps 751 mmHg 71%
    13:00 +14°C° 0.2 mm 6 mps 751 mmHg 70%
    14:00 +15°C° 0.2 mm 6 mps 751 mmHg 70%
    15:00 +15°C° 0.2 mm 6 mps 751 mmHg 69%
    16:00 +13°C° 0 mm 5 mps 751 mmHg 73%
    17:00 +12°C° 0 mm 5 mps 752 mmHg 78%
    18:00 +10°C° 0 mm 5 mps 752 mmHg 82%
    19:00 +10°C° 0 mm 5 mps 752 mmHg 83%
    20:00 +9°C° 0 mm 5 mps 753 mmHg 85%
    21:00 +9°C° 0 mm 5 mps 753 mmHg 86%
    22:00 +9°C° 0 mm 5 mps 753 mmHg 88%
    23:00 +8°C° 0 mm 5 mps 754 mmHg 89%

    20 October, Sunday

    Time Temperature Precipitation Wind Pressure Humidity
    00:00 +8°C° 0 mm 5 mps 754 mmHg 90%
    01:00 +8°C° 0 mm 5 mps 754 mmHg 91%
    02:00 +8°C° 0 mm 5 mps 754 mmHg 91%
    03:00 +7°C° 0 mm 5 mps 755 mmHg 92%
    04:00 +7°C° 0 mm 5 mps 755 mmHg 92%
    05:00 +7°C° 0 mm 5 mps 756 mmHg 92%
    06:00 +7°C° 0 mm 5 mps 756 mmHg 92%
    07:00 +8°C° 0 mm 5 mps 756 mmHg 88%
    08:00 +9°C° 0 mm 5 mps 756 mmHg 84%
    09:00 +10°C° 0 mm 5 mps 757 mmHg 80%
    10:00 +12°C° 0 mm 5 mps 757 mmHg 75%
    11:00 +13°C° 0 mm 5 mps 757 mmHg 70%
    12:00 +14°C° 0 mm 4 mps 758 mmHg 66%
    13:00 +15°C° 0 mm 4 mps 758 mmHg 65%
    14:00 +15°C° 0 mm 4 mps 758 mmHg 64%
    15:00 +15°C° 0 mm 4 mps 758 mmHg 64%
    16:00 +13°C° 0 mm 4 mps 758 mmHg 68%
    17:00 +12°C° 0 mm 3 mps 759 mmHg 73%
    18:00 +10°C° 0 mm 3 mps 759 mmHg 77%
    19:00 +10°C° 0 mm 3 mps 760 mmHg 79%
    20:00 +10°C° 0 mm 3 mps 760 mmHg 81%
    21:00 +9°C° 0 mm 2 mps 761 mmHg 83%
    22:00 +9°C° 0 mm 2 mps 761 mmHg 84%
    23:00 +9°C° 0 mm 2 mps 761 mmHg 85%

    21 October, Monday

    Time Temperature Precipitation Wind Pressure Humidity
    00:00 +8°C° 0 mm 2 mps 761 mmHg 86%
    01:00 +9°C° 0 mm 1 mps 761 mmHg 86%
    02:00 +9°C° 0 mm 1 mps 761 mmHg 86%
    03:00 +9°C° 0 mm 1 mps 761 mmHg 86%
    04:00 +9°C° 0 mm 1 mps 762 mmHg 86%
    05:00 +8°C° 0 mm 1 mps 762 mmHg 86%
    06:00 +7°C° 0 mm 0 mps 763 mmHg 86%
    07:00 +10°C° 0 mm 1 mps 763 mmHg 82%
    08:00 +11°C° 0 mm 1 mps 763 mmHg 78%
    09:00 +12°C° 0 mm 1 mps 764 mmHg 74%
    10:00 +13°C° 0 mm 1 mps 764 mmHg 71%
    11:00 +14°C° 0 mm 2 mps 764 mmHg 68%
    12:00 +15°C° 0 mm 2 mps 764 mmHg 65%
    13:00 +14°C° 0 mm 3 mps 764 mmHg 67%
    14:00 +14°C° 0 mm 4 mps 764 mmHg 70%
    15:00 +14°C° 0 mm 5 mps 764 mmHg 72%
    16:00 +13°C° 0 mm 5 mps 764 mmHg 77%
    17:00 +12°C° 0 mm 5 mps 764 mmHg 81%
    18:00 +10°C° 0 mm 5 mps 764 mmHg 86%
    19:00 +9°C° 0 mm 5 mps 764 mmHg 86%
    20:00 +9°C° 0 mm 5 mps 764 mmHg 86%
    21:00 +9°C° 0 mm 5 mps 764 mmHg 86%
    22:00 +10°C° 0 mm 5 mps 764 mmHg 86%
    23:00 +10°C° 0 mm 6 mps 763 mmHg 85%
    Show more